View from above orbital plane
|
View from above satellite
|
Ground track
|
The orbit data is extracted from the following two-line orbital elements,
1 28097U 03054C 21055.10560282 0.00000000 00000-0 00000-0 0 08
2 28097 63.4159 115.3130 0424905 359.5303 0.4697 13.40773311 08
Epoch (UTC): | 24 February 2021 02:32:04 |
Eccentricity: | 0.0424905 |
inclination: | 63.4159° |
perigee height: | 788 km |
apogee height: | 1424 km |
right ascension of ascending node: | 115.3130° |
argument of perigee: | 359.5303° |
revolutions per day: | 13.40773311 |
mean anomaly at epoch: | 0.4697° |
orbit number at epoch: | 0 |
The dashed part of the orbit path shows where the satellite is in the earth's shadow,
|
|